User: anonymous   Login
Location: Caltech
(34.1382°N, 118.1253°W)
Time: 15:02:42
(UTC-07:00)
Language:

Iridium 68 - Orbit

View from above orbital plane
View from above orbital plane
View from above satellite
View from above satellite

Ground track
Ground track

The orbit data is extracted from the following two-line orbital elements,

1 25291U 98021G   15184.47329386  .00000032  00000-0  44980-5 0  9995
2 25291 086.3980 162.7707 0002244 088.6986 271.4466 14.34214986902555
Epoch (UTC): 03 July 2015 11:21:32
Eccentricity: 0.0002244
inclination: 86.3980°
perigee height: 776 km
apogee height: 779 km
right ascension of ascending node: 162.7707°
argument of perigee: 88.6986°
revolutions per day: 14.34214986
mean anomaly at epoch: 271.4466°
orbit number at epoch: 90255

The dashed part of the orbit path shows where the satellite is in the earth's shadow,  

DLR